Regional Weather Roundup
Issued by NWS

Home | Current Version | Previous Version | Graphics & Text | Print | Product List | Glossary Off
Versions: 1 2 3 4 5 6 7 8 9 10 11 12 13 14 15 16 17 18 19 20 21 22 23 24 25 26 27 28 29 30 31 32 33 34 35 36 37 38 39 40 41 42 43 44 45 46 47 48 49 50

000
ASUS43 KMKX 281111
RWRWI

WISCONSIN REGIONAL WEATHER ROUNDUP
NATIONAL WEATHER SERVICE MILWAUKEE/SULLIVAN WI
600 AM CDT WED JUN 28 2017

NOTE: "FAIR" INDICATES FEW OR NO CLOUDS BELOW 12,000 FEET WITH NO
SIGNIFICANT WEATHER AND/OR OBSTRUCTIONS TO VISIBILITY.

WIZ001-002-006>008-014>016-023>028-281200-
NORTHWEST WISCONSIN

CITY           SKY/WX    TMP DP  RH WIND       PRES   REMARKS
SUPERIOR ARPT  NOT AVBL
ASHLAND        CLOUDY    52  47  83 CALM      29.75F
HAYWARD        CLOUDY    59  47  64 S7        29.74F
SIREN          CLOUDY    64  49  56 SE8       29.69F
CUMBERLAND     CLOUDY    55  46  71 SE7       29.73F
RICE LAKE      CLOUDY    60  48  64 SE12      29.74F
CHETEK         CLOUDY    59  50  71 SE7       29.74F
LADYSMITH      CLOUDY    61  48  63 SE10      29.78F
EAU CLAIRE     CLOUDY    63  48  58 SE9       29.73F
MENOMONIE      CLOUDY    62  50  65 SE6       29.73F
NEW RICHMOND   LGT RAIN  61  56  82 S10       29.69F
OSCEOLA        LGT RAIN  62  55  79 SE7       29.69F
$$

WIZ003>005-009-010-017-018-281200-
NORTH CENTRAL WISCONSIN

CITY           SKY/WX    TMP DP  RH WIND       PRES   REMARKS
MANITOWISH WTR CLOUDY    57  48  72 S9        29.82F
ARBOR VITAE    CLOUDY    59  48  67 S10       29.83F
WOODRUFF       CLOUDY    59  48  67 S10       29.83F
RHINELANDER    CLOUDY    58  47  66 S8        29.85F
EAGLE RIVER    CLOUDY    52  45  76 S3        29.85F
LAND O LAKES   CLOUDY    53  47  79 CALM      29.88S
PHILLIPS       CLOUDY    57  48  71 SE6       29.79F
TOMAHAWK       NOT AVBL
MEDFORD        CLOUDY    55  48  75 SE9       29.80F
MERRILL        CLOUDY    51  48  90 SE5       29.84F
$$

WIZ029-030-035-036-043>047-281200-
CENTRAL WISCONSIN

CITY           SKY/WX    TMP DP  RH WIND       PRES   REMARKS
WAUSAU           N/A    N/A N/A N/A MISG      29.83F
MOSINEE        PTCLDY    57  48  72 SE7       29.86F
MARSHFIELD     CLOUDY    57  48  72 S8        29.80F
STEVENS POINT  CLOUDY    58  47  66 SE5       29.85F
WAUPACA        CLOUDY    53  52  97 SE5       29.88F
WAUTOMA        MOCLDY    56  49  77 CALM      29.86F
WISC RAPIDS    CLOUDY    60  49  66 SE6       29.82F
CAMP DOUGLAS   CLOUDY    57  51  80 SE9       29.80F
$$

WIZ011>013-019>022-031-037>040-048>050-281200-
NORTHEAST WISCONSIN

CITY           SKY/WX    TMP DP  RH WIND       PRES   REMARKS
ANTIGO         CLOUDY    52  47  84 SE7       29.88F
SHAWANO        CLOUDY    57  50  77 S5        29.89F
OCONTO         CLEAR     56  49  77 CALM      29.91S
STURGEON BAY     N/A     58  48  69 S9        29.94S
GREEN BAY      CLOUDY    55  51  86 S9        29.91F
MANITOWOC      CLOUDY    60  47  61 S8        29.95S
APPLETON       PTCLDY    61  45  55 S12       29.89F
CLINTONVILLE   PTCLDY    54  48  82 S6        29.89F
OSHKOSH        PTCLDY    56  48  74 S6        29.90F
$$

WIZ032>034-041-042-053>061-281200-
SOUTHWEST WISCONSIN

CITY           SKY/WX    TMP DP  RH WIND       PRES   REMARKS
LA CROSSE      CLOUDY    72  53  51 S10       29.76F
SPARTA         CLOUDY    64  50  60 S10       29.78F
VIROQUA        CLOUDY    64  51  64 S15       29.80S
BOSCOBEL       CLOUDY    67  51  56 VRB3      29.81F
PRAIRIE DU CHI LGT RAIN  64  55  71 S9        29.81R
PLATTEVILLE    CLOUDY    65  55  68 S16G22    29.85F
$$

WIZ056-057-062-063-064-067-068-281200-
SOUTH CENTRAL WISCONSIN

CITY           SKY/WX    TMP DP  RH WIND       PRES   REMARKS
REEDSBURG      CLOUDY    62  50  65 SE6       29.84F
BARABOO/DELLS  CLOUDY    61  48  62 S12       29.85F
LONE ROCK      CLOUDY    66  51  58 SE9       29.83F
MINERAL POINT  CLOUDY    63  52  67 SE13      29.85F
MADISON        CLOUDY    61  49  64 S13       29.87F
MIDDLETON      CLOUDY    63  49  61 S12       29.88F
WATERTOWN      NOT AVBL
MONROE         CLOUDY    61  48  63 S14G20    29.89F
JANESVILLE     MOCLDY    63  46  55 S10       29.91F
$$

WIZ051-052-058>065-066-070>072-281200-
SOUTHEAST WISCONSIN

CITY           SKY/WX    TMP DP  RH WIND       PRES   REMARKS
MILWAUKEE      CLOUDY    60  49  66 S8        29.96F
WAUKESHA       CLEAR     55  46  71 S7        29.97F
MILWAUKEE/TIMM CLOUDY    59  45  58 S9        29.96F
RACINE         CLOUDY    62  47  57 S9        29.98F
KENOSHA        CLOUDY    58  48  69 S7        29.97F
FOND DU LAC    CLOUDY    60  46  59 S8        29.91F
SHEBOYGAN      CLOUDY    53  51  93 S3        29.95S
WEST BEND      PTCLDY    55  46  71 S7        29.94F
JUNEAU         CLOUDY    57  48  71 SE8       29.92F
$$

LSZ147-162-281200-
LAKE SUPERIOR

STATION/POSITION TIME  TEMP    WIND        PRES    WAVE
                       AIR SEA DIR/SP/G            HT/PER
                 (UTC) (F)     (DEG/KT/KT) (MB)    (FT/S)
W MID LAKE BUOY  1050   45 39  160/  8/ 10 1008.7F   0
DEVILS ISLAND    1000   59     160/ 10/ 13 1007.8R
SAXON HARBOR     1030   62     190/  5/ 11 1007.8F
$$

LMZ867-665-643>646-281200-
LAKE MICHIGAN

STATION/POSITION TIME  TEMP    WIND        PRES    WAVE
                       AIR SEA DIR/SP/G            HT/PER
                 (UTC) (F)     (DEG/KT/KT) (MB)    (FT/S)
CHAMBERS ISLAND  1040   64     180/  3/  9 1012.9R
S GREEN BAY BUOY 1100   65     190/ 16/ 17 1012.7
N MID LAKE BUOY  1050   58 56  200/ 12/ 16 1014.7R   3/ 5
NORTHPORT PIER   1040   60     190/  4/  8 1013.5R
KEWAUNEE LAKESHO 1048   53     170/  4/  5 1013.8R
SHEBOYGAN LAKESH 1100   55     170/ 13/ 13 1014.0F
PORT WASHINGTON  1030   56     190/  4/  6 1015.6R
ATWATER BUOY     0909   60 55  180/ 10/ 12 1014.6F
MILWAUKEE LAKESH 1050   61     180/  9/  9   N/A
S MID LAKE BUOY  1050   63 61  200/ 16/ 17 1016.0R   2/ 4
KENOSHA   LAKESH 1100   61     170/ 10/ 12 1014.6
$$

TC  - TEMPERATURE IN CELSIUS
VSB - VISIBILITY IN STATUTE MILES
WCI - WIND CHILL INDEX
HX  - HEAT INDEX





USA.gov is the U.S. government's official web portal to all federal, state and local government web resources and services.